Página principal
METAR-TAF:

METAR-TAF

Aeroportos :

Grayling Army Airfield

Grayling, Michigan, Estados Unidos

latitude: 44-40-49N, longitude: 084-43-44W, altura: 353 m

Observação actual do tempo

O boletim foi feito há 21 horas e 21 minutos, às 23:58 UTC
Vento 6 kt de este
Temperatura 24°C
Humidade 50%
Pressão 1015 hPa
Visibilidade: 12.9 km
Céu limpo

METAR: KGOV 202358Z AUTO 10006KT 8SM CLR 24/13 A2996 RMK AO2 SLP147 T02360128 10266 20236 57005 $

Hora: 17:19 (21:19 UTC)


TAF: em falta

Observações e previsões do tempo de mais de 4000 aeroportos (mensagens METAR e TAF).

As estações disponíveis são os pontos amarelos e vermelhos sobre o mapa.

Mova o rato sobre o mapa para ver o nome da estação.

Depois clique no ponto para visualizar as observações e previsões meteorológicas.

Para alterar o mapa : clique nos botões verdes com uma cruz preta para aumentar o zoom; no botão verde com uma pitada de zoom; ou nas setas verdes para mapas adjacentes.


METAR-TAF: